GW0175 Weather Reports


Display with metric or nautical units.
time (UTC)temp
F
wind
direction
speed
MPH
gust
MPH
rain 1hr
in
rain 24hr
in
rain mn
in
humidity
%
barometer
mb
20260904233121 97 239 3.0 6.0 0.00 0.00 0.00 28 1009.4
20260904232618 98 180 3.0 5.0 0.00 0.00 0.00 26 1008.8
20260904232114 98 217 2.0 6.0 0.00 0.00 0.00 26 1009.0
20260904231609 98 180 3.0 6.0 0.00 0.00 0.00 26 1009.0
20260904231109 99 151 4.0 8.0 0.00 0.00 0.00 26 1009.0
20260904230608 99 155 6.0 11.0 0.00 0.00 0.00 26 1008.9
20260904230104 100 171 4.0 9.0 0.00 0.00 0.00 25 1008.9
20260904225601 101 189 4.0 4.0 0.00 0.00 0.00 25 1009.0
20260904225056 100 182 5.0 7.0 0.00 0.00 0.00 25 1008.9
20260904224551 100 191 4.0 8.0 0.00 0.00 0.00 25 1009.0
20260904224046 100 180 3.0 8.0 0.00 0.00 0.00 25 1009.2
20260904223545 100 166 3.0 7.0 0.00 0.00 0.00 26 1008.9
20260904223041 100 154 3.0 5.0 0.00 0.00 0.00 26 1009.2
20260904222536 99 248 0.0 7.0 0.00 0.00 0.00 27 1009.2
20260904222032 100 236 5.0 7.0 0.00 0.00 0.00 26 1009.2
20260904221526 99 163 10.0 10.0 0.00 0.00 0.00 28 1009.4
20260904221021 99 160 3.0 5.0 0.00 0.00 0.00 28 1009.1
20260904220520 97 184 6.0 8.0 0.00 0.00 0.00 29 1009.4
20260904220017 97 198 3.0 5.0 0.00 0.00 0.00 29 1009.5
20260904215516 97 216 4.0 6.0 0.00 0.00 0.00 30 1009.2
20260904215012 97 168 5.0 5.0 0.00 0.00 0.00 28 1009.6
20260904214507 98 186 1.0 4.0 0.00 0.00 0.00 28 1009.5
20260904214002 98 182 6.0 11.0 0.00 0.00 0.00 28 1009.5
20260904213501 99 176 5.0 13.0 0.00 0.00 0.00 28 1009.5
20260904212957 100 183 5.0 13.0 0.00 0.00 0.00 27 1009.5
20260904212456 100 159 9.0 13.0 0.00 0.00 0.00 28 1009.5
20260904211951 98 180 4.0 10.0 0.00 0.00 0.00 30 1009.6
20260904211446 98 180 2.0 3.0 0.00 0.00 0.00 28 1009.6
20260904210942 97 108 3.0 5.0 0.00 0.00 0.00 29 1009.7
20260904210441 97 213 5.0 7.0 0.00 0.00 0.00 29 1009.9
20260904205937 98 159 2.0 7.0 0.00 0.00 0.00 28 1009.9
20260904205432 98 214 4.0 6.0 0.00 0.00 0.00 29 1010.0
20260904204929 99 213 3.0 6.0 0.00 0.00 0.00 26 1009.9
20260904204425 100 215 8.0 10.0 0.00 0.00 0.00 26 1010.0
20260904203921 100 167 5.0 9.0 0.00 0.00 0.00 27 1010.0
20260904203417 99 180 3.0 10.0 0.00 0.00 0.00 27 1009.9
20260904202912 102 180 5.0 6.0 0.00 0.00 0.00 26 1010.1
20260904202409 100 180 6.0 7.0 0.00 0.00 0.00 26 1010.1
20260904201904 98 166 8.0 8.0 0.00 0.00 0.00 27 1010.2
20260904201359 100 163 4.0 10.0 0.00 0.00 0.00 26 1010.6
20260904200854 102 117 0.0 7.0 0.00 0.00 0.00 25 1010.3
20260904200353 101 151 1.0 5.0 0.00 0.00 0.00 26 1010.4
20260904195848 98 165 5.0 8.0 0.00 0.00 0.00 27 1010.7
20260904195346 99 160 3.0 6.0 0.00 0.00 0.00 27 1010.7
20260904194841 100 148 2.0 6.0 0.00 0.00 0.00 26 1010.9
20260904194340 100 201 2.0 3.0 0.00 0.00 0.00 26 1010.8
20260904193836 100 156 8.0 13.0 0.00 0.00 0.00 27 1010.7
20260904193331 100 223 4.0 6.0 0.00 0.00 0.00 27 1011.1
20260904192826 100 169 4.0 8.0 0.00 0.00 0.00 27 1011.2
20260904192321 100 174 4.0 4.0 0.00 0.00 0.00 27 1011.2
20260904191818 100 70 4.0 4.0 0.00 0.00 0.00 27 1011.2
20260904191314 99 111 3.0 4.0 0.00 0.00 0.00 28 1011.3
20260904190811 99 223 5.0 11.0 0.00 0.00 0.00 28 1011.2
20260904190306 100 59 0.0 4.0 0.00 0.00 0.00 28 1011.3
20260904185803 99 68 0.0 5.0 0.00 0.00 0.00 28 1011.8
20260904185257 97 177 5.0 7.0 0.00 0.00 0.00 29 1011.6
20260904184756 97 182 4.0 9.0 0.00 0.00 0.00 29 1011.9
20260904184252 97 95 2.0 6.0 0.00 0.00 0.00 30 1011.9
20260904183747 97 192 2.0 6.0 0.00 0.00 0.00 30 1011.6
20260904183242 97 157 0.0 6.0 0.00 0.00 0.00 30 1012.0
20260904182738 98 206 0.0 6.0 0.00 0.00 0.00 30 1011.6
20260904182233 98 42 3.0 7.0 0.00 0.00 0.00 30 1012.2
20260904181728 96 188 1.0 5.0 0.00 0.00 0.00 31 1012.2
20260904181228 96 41 3.0 5.0 0.00 0.00 0.00 31 1012.2
20260904180723 96 244 3.0 6.0 0.00 0.00 0.00 31 1012.3
20260904180219 96 171 4.0 7.0 0.00 0.00 0.00 31 1012.4
20260904175717 97 194 5.0 8.0 0.00 0.00 0.00 30 1012.4
20260904175216 98 70 2.0 4.0 0.00 0.00 0.00 30 1012.3
20260904174711 98 180 2.0 4.0 0.00 0.00 0.00 30 1012.5
20260904174207 96 180 0.0 7.0 0.00 0.00 0.00 32 1012.9
20260904173702 95 152 2.0 8.0 0.00 0.00 0.00 32 1012.7
20260904173157 94 201 2.0 8.0 0.00 0.00 0.00 32 1013.1
20260904172654 96 161 5.0 5.0 0.00 0.00 0.00 30 1013.1
20260904172153 96 162 0.0 4.0 0.00 0.00 0.00 31 1013.0
20260904171649 95 160 0.0 5.0 0.00 0.00 0.00 32 1013.1
20260904171143 95 196 3.0 5.0 0.00 0.00 0.00 33 1013.0
20260904170640 94 277 3.0 6.0 0.00 0.00 0.00 35 1013.0
20260904170135 94 197 4.0 7.0 0.00 0.00 0.00 36 1013.0
20260904165633 95 196 2.0 4.0 0.00 0.00 0.00 34 1013.1
20260904165127 95 103 1.0 3.0 0.00 0.00 0.00 35 1013.1
20260904164622 94 252 0.0 2.0 0.00 0.00 0.00 35 1013.1
20260904164118 93 180 1.0 4.0 0.00 0.00 0.00 36 1013.1
20260904163612 93 209 1.0 5.0 0.00 0.00 0.00 37 1013.1
20260904163108 93 15 2.0 3.0 0.00 0.00 0.00 37 1013.0
20260904162603 94 249 3.0 4.0 0.00 0.00 0.00 36 1013.2
20260904162057 93 90 2.0 4.0 0.00 0.00 0.00 37 1013.2
20260904161552 93 159 2.0 5.0 0.00 0.00 0.00 38 1013.1
20260904161048 92 270 0.0 2.0 0.00 0.00 0.00 38 1013.0
20260904160543 92 168 0.0 6.0 0.00 0.00 0.00 39 1013.4
20260904160039 92 248 2.0 3.0 0.00 0.00 0.00 39 1013.0
20260904155537 92 173 0.0 3.0 0.00 0.00 0.00 40 1013.1
20260904155032 90 90 2.0 4.0 0.00 0.00 0.00 41 1013.1
20260904154526 89 203 3.0 5.0 0.00 0.00 0.00 43 1013.2
20260904154021 88 217 4.0 6.0 0.00 0.00 0.00 43 1013.1
20260904153521 88 250 0.0 6.0 0.00 0.00 0.00 44 1013.3
20260904153017 89 230 3.0 6.0 0.00 0.00 0.00 43 1013.1
20260904152513 88 229 0.0 6.0 0.00 0.00 0.00 44 1013.4
20260904152008 89 237 0.0 2.0 0.00 0.00 0.00 43 1013.3
20260904151502 88 336 2.0 4.0 0.00 0.00 0.00 44 1013.3
20260904150956 87 180 1.0 5.0 0.00 0.00 0.00 45 1013.3
20260904150452 87 172 0.0 5.0 0.00 0.00 0.00 46 1013.4
20260904145950 87 304 5.0 5.0 0.00 0.00 0.00 46 1013.5
20260904145446 87 300 0.0 3.0 0.00 0.00 0.00 46 1013.5
20260904144941 87 26 0.0 2.0 0.00 0.00 0.00 46 1013.4
20260904144437 85 276 0.0 3.0 0.00 0.00 0.00 48 1013.7
20260904143932 84 165 0.0 7.0 0.00 0.00 0.00 50 1013.4
20260904143429 84 75 0.0 5.0 0.00 0.00 0.00 50 1013.5
20260904142925 84 102 2.0 3.0 0.00 0.00 0.00 49 1013.4
20260904142421 83 270 1.0 10.0 0.00 0.00 0.00 51 1013.5
20260904141915 83 289 0.0 10.0 0.00 0.00 0.00 52 1013.4
20260904141410 83 254 0.0 7.0 0.00 0.00 0.00 52 1013.4
20260904140907 82 126 0.0 5.0 0.00 0.00 0.00 52 1013.4
20260904140401 82 325 3.0 9.0 0.00 0.00 0.00 53 1013.2
20260904135900 82 285 1.0 5.0 0.00 0.00 0.00 53 1013.2
20260904135355 81 305 2.0 5.0 0.00 0.00 0.00 54 1013.0
20260904134852 81 273 4.0 4.0 0.00 0.00 0.00 55 1013.3
20260904134351 80 288 0.0 5.0 0.00 0.00 0.00 55 1013.2
20260904133851 80 243 2.0 10.0 0.00 0.00 0.00 55 1013.3
20260904133347 81 90 0.0 3.0 0.00 0.00 0.00 55 1013.2
20260904132846 80 208 2.0 6.0 0.00 0.00 0.00 55 1013.3
20260904132341 80 286 5.0 5.0 0.00 0.00 0.00 55 1013.2
20260904131836 79 343 2.0 4.0 0.00 0.00 0.00 55 1013.0
20260904131331 79 221 2.0 5.0 0.00 0.00 0.00 56 1012.9
20260904130826 78 349 2.0 3.0 0.00 0.00 0.00 56 1013.0
20260904130325 78 198 1.0 4.0 0.00 0.00 0.00 57 1012.9
20260904125821 77 98 1.0 2.0 0.00 0.00 0.00 57 1012.7
20260904125317 77 248 2.0 3.0 0.00 0.00 0.00 58 1012.4
20260904124816 76 290 0.0 5.0 0.00 0.00 0.00 59 1012.6
20260904124313 75 353 0.0 0.0 0.00 0.00 0.00 58 1012.7
20260904123807 75 334 0.0 2.0 0.00 0.00 0.00 58 1012.5
20260904123303 75 131 2.0 2.0 0.00 0.00 0.00 57 1012.1
20260904122757 76 346 0.0 5.0 0.00 0.00 0.00 56 1012.2
20260904122256 76 0 0.0 2.0 0.00 0.00 0.00 56 1012.1
20260904121752 76 180 1.0 3.0 0.00 0.00 0.00 56 1012.1
20260904121248 75 36 2.0 3.0 0.00 0.00 0.00 57 1012.0
20260904120744 75 225 3.0 3.0 0.00 0.00 0.00 57 1012.2
20260904120240 75 291 0.0 2.0 0.00 0.00 0.00 57 1012.2
20260904115735 75 21 0.0 2.0 0.00 0.00 0.00 56 1011.9
20260904115230 75 240 0.0 3.0 0.00 0.00 0.00 56 1011.6
20260904114725 75 255 4.0 4.0 0.00 0.00 0.00 56 1012.0
20260904114225 75 66 0.0 1.0 0.00 0.00 0.00 56 1012.1
20260904113720 75 208 0.0 3.0 0.00 0.00 0.00 56 1012.0
20260904113218 75 60 1.0 2.0 0.00 0.00 0.00 56 1011.6
20260904112714 75 120 1.0 2.0 0.00 0.00 0.00 56 1011.8
20260904112209 75 234 0.0 3.0 0.00 0.00 0.00 57 1011.9
20260904111705 75 75 1.0 1.0 0.00 0.00 0.00 56 1012.0
20260904111200 75 310 3.0 4.0 0.00 0.00 0.00 56 1012.0
20260904110656 76 312 2.0 2.0 0.00 0.00 0.00 55 1011.8
20260904110155 76 286 0.0 3.0 0.00 0.00 0.00 55 1011.8
20260904105650 77 327 0.0 5.0 0.00 0.00 0.00 54 1011.5
20260904105145 78 353 0.0 7.0 0.00 0.00 0.00 53 1011.6
20260904104640 78 324 3.0 7.0 0.00 0.00 0.00 52 1011.8
20260904104130 77 300 0.0 8.0 0.00 0.00 0.00 53 1011.8
20260904103626 76 320 0.0 4.0 0.00 0.00 0.00 56 1011.8
20260904103122 74 168 0.0 1.0 0.00 0.00 0.00 58 1011.9
20260904102618 75 82 0.0 1.0 0.00 0.00 0.00 56 1011.8
20260904102113 76 145 1.0 2.0 0.00 0.00 0.00 56 1011.9
20260904101609 76 278 2.0 4.0 0.00 0.00 0.00 55 1011.6
20260904101105 75 299 3.0 5.0 0.00 0.00 0.00 56 1011.8
20260904100600 75 294 1.0 3.0 0.00 0.00 0.00 57 1011.9
20260904100055 73 7 0.0 2.0 0.00 0.00 0.00 60 1011.6
20260904095549 73 15 0.0 2.0 0.00 0.00 0.00 59 1011.9
20260904095044 74 0 0.0 0.0 0.00 0.00 0.00 58 1011.6
20260904094539 75 20 0.0 2.0 0.00 0.00 0.00 57 1011.8
20260904094034 75 243 0.0 3.0 0.00 0.00 0.00 57 1011.5
20260904093531 75 0 0.0 0.0 0.00 0.00 0.00 58 1011.8
20260904093031 75 172 0.0 1.0 0.00 0.00 0.00 57 1011.9
20260904092527 75 294 0.0 2.0 0.00 0.00 0.00 57 1012.0
20260904092023 76 303 0.0 3.0 0.00 0.00 0.00 56 1012.0
20260904091519 76 312 2.0 2.0 0.00 0.00 0.00 55 1012.1
20260904091018 76 326 0.0 2.0 0.00 0.00 0.00 55 1011.8
20260904090514 76 352 0.0 3.0 0.00 0.00 0.00 55 1012.0
20260904090010 76 276 2.0 3.0 0.00 0.00 0.00 56 1011.8
20260904085505 76 297 0.0 0.0 0.00 0.00 0.00 56 1011.8
20260904085004 76 297 0.0 0.0 0.00 0.00 0.00 55 1011.8
20260904084500 77 297 0.0 2.0 0.00 0.00 0.00 54 1011.8
20260904083955 77 270 0.0 2.0 0.00 0.00 0.00 54 1011.9
20260904083452 77 331 0.0 2.0 0.00 0.00 0.00 54 1011.9
20260904082947 77 287 2.0 4.0 0.00 0.00 0.00 54 1011.9
20260904082442 77 291 0.0 3.0 0.00 0.00 0.00 54 1011.9
20260904081937 77 289 0.0 5.0 0.00 0.00 0.00 54 1011.8
20260904081433 77 346 0.0 3.0 0.00 0.00 0.00 53 1011.8
20260904080929 77 297 1.0 4.0 0.00 0.00 0.00 55 1012.1
20260904080424 76 285 0.0 4.0 0.00 0.00 0.00 56 1012.1
20260904075920 77 243 0.0 4.0 0.00 0.00 0.00 55 1012.4
20260904075416 77 237 0.0 3.0 0.00 0.00 0.00 54 1012.0
20260904074914 78 265 2.0 4.0 0.00 0.00 0.00 54 1012.1
20260904074410 78 35 0.0 4.0 0.00 0.00 0.00 54 1012.0
20260904073905 77 270 1.0 4.0 0.00 0.00 0.00 56 1011.9
20260904073401 78 243 0.0 2.0 0.00 0.00 0.00 55 1011.6
20260904072856 78 174 0.0 2.0 0.00 0.00 0.00 54 1011.8
20260904072351 78 81 0.0 2.0 0.00 0.00 0.00 54 1011.5
20260904071846 78 233 0.0 2.0 0.00 0.00 0.00 53 1011.8
20260904071341 78 215 0.0 1.0 0.00 0.00 0.00 53 1011.4
20260904070836 78 291 1.0 3.0 0.00 0.00 0.00 53 1011.9
20260904070335 78 270 2.0 2.0 0.00 0.00 0.00 54 1011.9
20260904065829 78 193 3.0 4.0 0.00 0.00 0.00 54 1012.0
20260904065327 78 180 3.0 4.0 0.00 0.00 0.00 53 1012.0
20260904064821 78 185 2.0 3.0 0.00 0.00 0.00 54 1012.0
20260904064317 78 172 0.0 1.0 0.00 0.00 0.00 54 1012.0
20260904063813 78 174 0.0 2.0 0.00 0.00 0.00 54 1011.8
20260904063309 79 165 0.0 2.0 0.00 0.00 0.00 53 1011.6
20260904062804 79 246 0.0 1.0 0.00 0.00 0.00 51 1011.9
20260904062300 80 180 0.0 1.0 0.00 0.00 0.00 51 1011.6
20260904061755 80 196 2.0 2.0 0.00 0.00 0.00 50 1011.9
20260904061251 80 241 0.0 4.0 0.00 0.00 0.00 50 1011.8
20260904060748 81 160 0.0 2.0 0.00 0.00 0.00 49 1011.8
20260904060243 81 241 2.0 5.0 0.00 0.00 0.00 49 1011.6
20260904055738 81 237 2.0 4.0 0.00 0.00 0.00 49 1011.8
20260904055232 81 253 3.0 5.0 0.00 0.00 0.00 49 1011.6
20260904054728 81 190 3.0 5.0 0.00 0.00 0.00 49 1011.5
20260904054224 80 225 4.0 4.0 0.00 0.00 0.00 49 1011.6
20260904053719 80 241 3.0 4.0 0.00 0.00 0.00 49 1011.6
20260904053218 79 225 2.0 5.0 0.00 0.00 0.00 51 1011.6
20260904052715 78 237 3.0 5.0 0.00 0.00 0.00 52 1011.6
20260904052211 79 221 2.0 3.0 0.00 0.00 0.00 52 1011.9
20260904051708 79 216 3.0 4.0 0.00 0.00 0.00 52 1012.1
20260904051203 79 197 2.0 3.0 0.00 0.00 0.00 51 1011.9
20260904050658 78 213 0.0 5.0 0.00 0.00 0.00 53 1011.8
20260904050154 78 270 0.0 5.0 0.00 0.00 0.00 57 1011.8
20260904045654 80 240 2.0 3.0 0.00 0.00 0.00 53 1011.8
20260904045154 80 209 2.0 3.0 0.00 0.00 0.00 53 1011.5
20260904044649 80 160 3.0 3.0 0.00 0.00 0.00 52 1011.4
20260904044146 81 250 4.0 6.0 0.00 0.00 0.00 48 1011.5
20260904043642 81 135 0.0 3.0 0.00 0.00 0.00 47 1011.5
20260904043137 81 175 2.0 2.0 0.00 0.00 0.00 48 1011.4
20260904042633 80 172 0.0 1.0 0.00 0.00 0.00 49 1011.1
20260904042128 80 261 0.0 0.0 0.00 0.00 0.00 49 1011.1
20260904041624 80 270 0.0 1.0 0.00 0.00 0.00 50 1011.3
20260904041120 80 279 0.0 1.0 0.00 0.00 0.00 50 1011.2
20260904040615 80 254 0.0 1.0 0.00 0.00 0.00 50 1011.0
20260904040112 80 246 0.0 2.0 0.00 0.00 0.00 50 1011.2
20260904035607 81 251 2.0 3.0 0.00 0.00 0.00 48 1011.2
20260904035106 81 240 0.0 2.0 0.00 0.00 0.00 49 1011.4
20260904034601 82 254 1.0 3.0 0.00 0.00 0.00 47 1011.0
20260904034057 83 180 0.0 2.0 0.00 0.00 0.00 46 1011.1
20260904033553 83 180 0.0 2.0 0.00 0.00 0.00 45 1011.2
20260904033050 83 180 2.0 3.0 0.00 0.00 0.00 45 1011.2
20260904032545 82 154 1.0 3.0 0.00 0.00 0.00 46 1011.1
20260904032044 81 169 2.0 2.0 0.00 0.00 0.00 46 1011.2
20260904031543 80 106 0.0 0.0 0.00 0.00 0.00 47 1011.1
20260904031040 82 66 0.0 2.0 0.00 0.00 0.00 45 1011.0
20260904030535 83 180 0.0 0.0 0.00 0.00 0.00 44 1011.0
20260904030031 82 246 0.0 0.0 0.00 0.00 0.00 45 1010.8
20260904025526 82 246 0.0 0.0 0.00 0.00 0.00 47 1010.7
20260904025026 82 255 0.0 2.0 0.00 0.00 0.00 48 1010.6
20260904024522 83 246 0.0 3.0 0.00 0.00 0.00 48 1010.8
20260904024017 84 173 0.0 1.0 0.00 0.00 0.00 45 1010.4
20260904023514 84 203 0.0 0.0 0.00 0.00 0.00 44 1010.6
20260904023009 84 203 1.0 1.0 0.00 0.00 0.00 43 1010.2
20260904022504 83 188 0.0 1.0 0.00 0.00 0.00 46 1010.2
20260904022001 84 270 1.0 4.0 0.00 0.00 0.00 46 1010.0
20260904021456 86 165 1.0 1.0 0.00 0.00 0.00 38 1010.0
20260904020956 86 74 0.0 0.0 0.00 0.00 0.00 38 1009.9
20260904020452 86 74 0.0 0.0 0.00 0.00 0.00 38 1009.8
20260904015950 86 74 0.0 0.0 0.00 0.00 0.00 37 1009.6
20260904015446 86 74 0.0 0.0 0.00 0.00 0.00 37 1009.6
20260904014944 87 66 0.0 2.0 0.00 0.00 0.00 37 1009.5
20260904014439 87 35 0.0 0.0 0.00 0.00 0.00 36 1009.6
20260904013935 87 74 0.0 2.0 0.00 0.00 0.00 36 1009.6
20260904013431 88 54 0.0 2.0 0.00 0.00 0.00 36 1009.5
20260904012927 87 45 2.0 3.0 0.00 0.00 0.00 36 1009.5
20260904012426 88 49 2.0 3.0 0.00 0.00 0.00 35 1009.5
20260904011921 89 0 4.0 5.0 0.00 0.00 0.00 34 1009.6
20260904011416 90 353 3.0 3.0 0.00 0.00 0.00 34 1009.6
20260904010911 90 348 1.0 5.0 0.00 0.00 0.00 34 1009.5
20260904010408 91 346 3.0 4.0 0.00 0.00 0.00 33 1009.4
20260904005902 91 270 0.0 2.0 0.00 0.00 0.00 33 1009.4
20260904005358 91 251 0.0 2.0 0.00 0.00 0.00 32 1009.4
20260904004852 92 77 0.0 2.0 0.00 0.00 0.00 32 1009.2
20260904004349 92 276 0.0 2.0 0.00 0.00 0.00 32 1009.4
20260904003849 93 258 2.0 5.0 0.00 0.00 0.00 32 1009.5
20260904003345 94 254 0.0 2.0 0.00 0.00 0.00 30 1009.5
20260904002840 94 304 0.0 2.0 0.00 0.00 0.00 29 1009.2
20260904002337 95 345 1.0 1.0 0.00 0.00 0.00 29 1009.2
20260904001835 95 117 0.0 2.0 0.00 0.00 0.00 28 1009.1
20260904001331 96 0 0.0 1.0 0.00 0.00 0.00 27 1009.4
20260904000826 95 350 0.0 0.0 0.00 0.00 0.00 28 1009.0
20260904000325 95 349 3.0 6.0 0.00 0.00 0.00 28 1009.2
20260903235820 95 0 4.0 6.0 0.00 0.00 0.00 28 1008.9
20260903235316 96 3 6.0 9.0 0.00 0.00 0.00 27 1009.0
20260903234815 97 0 2.0 5.0 0.00 0.00 0.00 26 1009.1
20260903234312 98 0 4.0 8.0 0.00 0.00 0.00 26 1008.7
20260903233808 99 270 2.0 3.0 0.00 0.00 0.00 26 1008.9
20260903233304 96 352 4.0 7.0 0.00 0.00 0.00 28 1008.9